Weather History for Boonville, MO

Change the Weather History Date:

Tuesday, March 19, 2013

  Actual Average Record
Temperature  
Mean Temperature 38 °F -  
Max Temperature 78 °F 54 °F 98 °F (2014)
Min Temperature 32 °F 34 °F 9 °F (1965)
Degree Days  
Heating Degree Days 27    
Moisture  
Dew Point 18 °F    
Average Humidity 48    
Maximum Humidity 95    
Minimum Humidity 27    
Precipitation  
Precipitation 0.00 in - - ()
Sea Level Pressure  
Sea Level Pressure 30.17 in    
Wind  
Wind Speed 5 mph (West)    
Max Wind Speed 10 mph    
Max Gust Speed -    
Visibility 10 miles    
Events      
Averages and records for this station are not official NWS values.
T = Trace of Precipitation, MM = Missing Value Source: NWS Daily Summary

Daily Weather History Graph

Daily Weather History Graph

Search for Another Location

Airport:

Trip Planner

Search our weather history database for the weather conditions in past years. The results will help you decide how hot, cold, wet, or windy it might be!

Date:

Astronomy

Mar. 19, 2013 Rise Set
Actual Time 7:15 AM CDT 7:21 PM CDT
Civil Twilight 6:48 AM CDT 7:48 PM CDT
Nautical Twilight 6:17 AM CDT 8:19 PM CDT
Astronomical Twilight 5:46 AM CDT 8:51 PM CDT
Moon 12:08 PM CDT (3/19) 2:06 AM CDT (3/19)
Length of Visible Light 12h 59m
Length of Day
12h 06m
Waxing Crescent, 50% of the Moon is Illuminated
Mar 19
Waxing Crescent
Mar 19
First Quarter
Mar 27
Full
Apr 2
Last Quarter
Apr 10
New

Hourly Weather History & Observations

Time (CDT) Temp. Windchill Dew Point Humidity Pressure Visibility Wind Dir Wind Speed Gust Speed Precip Events Conditions
12:15 AM 34.2 °F 30.0 °F 18.3 °F 52% 30.06 in 10.0 mi WNW 4.6 mph - N/A   Clear
12:35 AM 33.8 °F 29.6 °F 17.8 °F 52% 30.06 in 10.0 mi WNW 4.6 mph - N/A   Clear
12:55 AM 33.6 °F 29.4 °F 17.6 °F 52% 30.07 in 10.0 mi West 4.6 mph - N/A   Clear
1:15 AM 33.6 °F - 17.4 °F 52% 30.05 in 10.0 mi Calm Calm - N/A   Clear
1:35 AM 33.1 °F 30.0 °F 17.6 °F 53% 30.06 in 10.0 mi West 3.5 mph - N/A   Clear
1:55 AM 32.0 °F 25.6 °F 18.1 °F 57% 30.08 in 10.0 mi West 6.9 mph - N/A   Scattered Clouds
2:15 AM 32.5 °F 26.2 °F 17.6 °F 54% 30.09 in 10.0 mi West 6.9 mph - N/A   Scattered Clouds
2:55 AM 33.1 °F 28.7 °F 16.0 °F 50% 30.07 in 10.0 mi NW 4.6 mph - N/A   Mostly Cloudy
3:15 AM 32.9 °F 28.5 °F 16.2 °F 50% 30.07 in 10.0 mi WNW 4.6 mph - N/A   Overcast
3:35 AM 32.9 °F 29.8 °F 16.3 °F 51% 30.08 in 10.0 mi West 3.5 mph - N/A   Overcast
3:55 AM 33.1 °F 28.7 °F 16.7 °F 51% 30.08 in 10.0 mi West 4.6 mph - N/A   Overcast
4:15 AM 32.9 °F 28.5 °F 16.7 °F 51% 30.08 in 10.0 mi West 4.6 mph - N/A   Overcast
4:35 AM 32.7 °F 29.6 °F 16.7 °F 52% 30.08 in 10.0 mi West 3.5 mph - N/A   Mostly Cloudy
4:55 AM 32.2 °F 28.9 °F 16.7 °F 53% 30.09 in 10.0 mi WNW 3.5 mph - N/A   Mostly Cloudy
5:15 AM 32.2 °F 27.7 °F 16.9 °F 53% 30.10 in 10.0 mi West 4.6 mph - N/A   Mostly Cloudy
5:35 AM 32.4 °F - 17.1 °F 53% 30.11 in 10.0 mi Calm Calm - N/A   Overcast
5:55 AM 32.4 °F - 16.9 °F 53% 30.11 in 10.0 mi Calm Calm - N/A   Overcast
6:15 AM 32.5 °F 28.1 °F 17.1 °F 53% 30.12 in 10.0 mi West 4.6 mph - N/A   Overcast
6:35 AM 32.5 °F 27.1 °F 17.2 °F 53% 30.13 in 10.0 mi WNW 5.8 mph - N/A   Overcast
6:55 AM 32.9 °F 29.8 °F 16.5 °F 51% 30.13 in 10.0 mi West 3.5 mph - N/A   Overcast
7:15 AM 32.4 °F - 16.7 °F 53% 30.13 in 10.0 mi Calm Calm - N/A   Overcast
7:35 AM 32.2 °F 26.7 °F 16.7 °F 53% 30.13 in 10.0 mi NW 5.8 mph - N/A   Mostly Cloudy
7:55 AM 32.0 °F 28.7 °F 16.7 °F 53% 30.14 in 10.0 mi WNW 3.5 mph - N/A   Overcast
8:15 AM 32.4 °F 26.9 °F 16.0 °F 51% 30.15 in 10.0 mi NW 5.8 mph - N/A   Mostly Cloudy
8:35 AM 33.1 °F 26.9 °F 16.0 °F 50% 30.17 in 10.0 mi WNW 6.9 mph - N/A   Scattered Clouds
8:55 AM 33.3 °F 26.4 °F 15.1 °F 47% 30.18 in 10.0 mi NW 8.1 mph - N/A   Scattered Clouds
9:15 AM 33.8 °F 27.0 °F 14.4 °F 45% 30.19 in 10.0 mi WNW 8.1 mph - N/A   Clear
9:35 AM 34.7 °F 27.5 °F 13.5 °F 42% 30.20 in 10.0 mi NW 9.2 mph - N/A   Clear
9:55 AM 35.1 °F 28.6 °F 13.3 °F 41% 30.21 in 10.0 mi WNW 8.1 mph - N/A   Clear
10:15 AM 35.6 °F 29.9 °F 12.0 °F 38% 30.21 in 10.0 mi NW 6.9 mph - N/A   Clear
10:35 AM 36.9 °F 29.6 °F 12.6 °F 37% 30.22 in 10.0 mi NNW 10.4 mph - N/A   Clear
10:55 AM 37.0 °F 32.4 °F 11.8 °F 35% 30.23 in 10.0 mi NNW 5.8 mph - N/A   Clear
11:15 AM 37.9 °F 32.1 °F 11.7 °F 34% 30.23 in 10.0 mi NNW 8.1 mph - N/A   Clear
11:35 AM 38.3 °F 32.5 °F 11.3 °F 33% 30.23 in 10.0 mi NNW 8.1 mph - N/A   Clear
11:55 AM 39.2 °F 34.2 °F 12.9 °F 34% 30.23 in 10.0 mi NNW 6.9 mph - N/A   Clear
12:15 PM 39.9 °F 35.8 °F 12.2 °F 32% 30.24 in 10.0 mi NNW 5.8 mph - N/A   Clear
12:35 PM 41.0 °F 38.0 °F 11.8 °F 30% 30.24 in 10.0 mi NW 4.6 mph - N/A   Mostly Cloudy
12:55 PM 41.5 °F 37.8 °F 12.6 °F 31% 30.23 in 10.0 mi SW 5.8 mph - N/A   Overcast
1:15 PM 41.5 °F - 13.3 °F 32% 30.23 in 10.0 mi Calm Calm - N/A   Mostly Cloudy
1:35 PM 41.9 °F 40.0 °F 12.7 °F 31% 30.22 in 10.0 mi WNW 3.5 mph - N/A   Scattered Clouds
1:55 PM 42.4 °F 40.7 °F 12.7 °F 30% 30.22 in 10.0 mi NNW 3.5 mph - N/A   Mostly Cloudy
2:15 PM 42.6 °F 40.9 °F 12.7 °F 30% 30.21 in 10.0 mi South 3.5 mph - N/A   Mostly Cloudy
2:35 PM 42.8 °F 40.1 °F 12.2 °F 29% 30.21 in 10.0 mi SSW 4.6 mph - N/A   Overcast
2:55 PM 43.2 °F 40.5 °F 10.9 °F 27% 30.21 in 10.0 mi West 4.6 mph - N/A   Overcast
3:15 PM 43.2 °F 41.5 °F 11.3 °F 27% 30.20 in 10.0 mi WNW 3.5 mph - N/A   Overcast
3:35 PM 43.7 °F 42.1 °F 13.5 °F 29% 30.20 in 10.0 mi WNW 3.5 mph - N/A   Scattered Clouds
3:55 PM 44.2 °F 41.8 °F 13.1 °F 28% 30.20 in 10.0 mi WSW 4.6 mph - N/A   Mostly Cloudy
4:15 PM 43.9 °F 41.3 °F 11.8 °F 27% 30.21 in 10.0 mi WSW 4.6 mph - N/A   Overcast
4:35 PM 44.4 °F 40.5 °F 12.4 °F 27% 30.21 in 10.0 mi West 6.9 mph - N/A   Mostly Cloudy
4:55 PM 44.4 °F 42.0 °F 11.7 °F 27% 30.20 in 10.0 mi SW 4.6 mph - N/A   Mostly Cloudy
5:15 PM 44.6 °F 41.4 °F 13.5 °F 28% 30.21 in 10.0 mi SW 5.8 mph - N/A   Scattered Clouds
5:35 PM 44.2 °F 39.2 °F 15.6 °F 32% 30.21 in 10.0 mi WSW 9.2 mph - N/A   Scattered Clouds
5:55 PM 43.7 °F 39.7 °F 15.4 °F 32% 30.21 in 10.0 mi WSW 6.9 mph - N/A   Mostly Cloudy
6:15 PM 43.2 °F 40.5 °F 14.9 °F 32% 30.21 in 10.0 mi SW 4.6 mph - N/A   Mostly Cloudy
6:35 PM 43.0 °F 39.5 °F 16.2 °F 34% 30.21 in 10.0 mi WSW 5.8 mph - N/A   Scattered Clouds
6:55 PM 42.6 °F 39.0 °F 17.8 °F 37% 30.20 in 10.0 mi SW 5.8 mph - N/A   Clear
7:15 PM 41.5 °F 37.8 °F 24.3 °F 50% 30.20 in 10.0 mi SW 5.8 mph - N/A   Clear
7:35 PM 40.5 °F 36.5 °F 26.2 °F 57% 30.20 in 10.0 mi SW 5.8 mph - N/A   Clear
7:55 PM 39.4 °F 36.1 °F 27.1 °F 62% 30.21 in 10.0 mi SW 4.6 mph - N/A   Clear
8:35 PM 37.8 °F 35.3 °F 29.8 °F 73% 30.21 in 10.0 mi SW 3.5 mph - N/A   Clear
8:55 PM 37.4 °F 34.9 °F 30.2 °F 75% 30.21 in 10.0 mi SW 3.5 mph - N/A   Clear
9:15 PM 37.2 °F 34.7 °F 30.7 °F 77% 30.22 in 10.0 mi WSW 3.5 mph - N/A   Clear
9:35 PM 36.9 °F 34.3 °F 31.3 °F 80% 30.23 in 10.0 mi WSW 3.5 mph - N/A   Clear
9:55 PM 36.5 °F 32.7 °F 31.5 °F 82% 30.23 in 10.0 mi WSW 4.6 mph - N/A   Clear
10:15 PM 35.8 °F 33.0 °F 31.6 °F 85% 30.22 in 10.0 mi SW 3.5 mph - N/A   Clear
10:35 PM 34.9 °F 30.8 °F 31.8 °F 89% 30.22 in 10.0 mi WSW 4.6 mph - N/A   Clear
10:55 PM 34.3 °F 30.2 °F 32.2 °F 92% 30.22 in 10.0 mi WSW 4.6 mph - N/A   Clear
11:15 PM 34.5 °F 30.4 °F 32.7 °F 93% 30.23 in 10.0 mi WSW 4.6 mph - N/A   Clear
11:55 PM 34.2 °F - 32.9 °F 95% 30.23 in 10.0 mi Calm Calm - N/A   Clear